STARLINK-32343, 61712

Orbit data source: Space-Track

STARLINK-32343, 61712 is a payload satellite owned by SpaceX/Seattle (US) in LEO that was launched on Wed, 30 Oct 2024 UTC via an FALCON 9 launch vehicle from the Air Force Eastern Test Range (AFETR). Payload-class satellites include a variety of spacecraft equipped with specific instruments for various scientific and technological missions. These include communications satellites like Starlink; space stations such as the ISS; scientific satellites like the Hubble; Earth observation satellites from companies like Planet Labs, Umbra, and HawkEye 360; GPS; miniature CubeSats for education and research; and military/defense satellites.

Loading next visibility...
Identifier
61712, 2024-196F
Orbit
LEO
Last TLE update
1 day ago
Origin
Manufacturer
SpaceX/Seattle
Mission
Operational Commercial Communications
Bus & Motor
STARLINK V2M, Unknown motor
Mass
730 kg wet, ~700 kg dry
Launch date (UTC)
2024-10-30 (6 months ago)
Launch vehicle
FALCON 9
Launch site
Air Force Eastern Test Range (AFETR)
Object type
Payload
Rocket body
Debris
Shape & HBR
Box + 2 Pan, 29 m
Radar Cross Section
36.964 m², Large (>1 m²)

Expand to show TLE details & history

TLE from 1 day ago
0 STARLINK-32343
1 61712U 24196F   25114.55122675  .00001347  00000-0  57609-4 0  9991
2 61712  53.1596 143.8055 0001390  76.3005 283.8150 15.30191919 28295
Epoch: 2025-04-24T13:13Z
Definitive object data (Epoch: 2025-04-24T13:13:45.991Z)
Latitude
-0.00004°
Longitude
92.5428°
Altitude
475.912 km
Speed
7.629 km/s
True Right ascension
09h 35m 13s
True Declination
0° 00' 00"
Sunlit
Object was in daylight at TLE epoch
Visualization TLE readout
Latitude
-28.62086°
Longitude
-68.50546°
Altitude
484.536 km
Speed
7.623 km/s
Apparent Right ascension
00h 15m 28s
Apparent Declination
-80° 28' 02"
Sunlit
Object is in daylight
Visualization observer readout
Local Sidereal Time
22:30:13
Azimuth
175.073° S
Elevation
-31.261°
Doppler factor
1
Orbital elements
Apogee altitude
476.448 km
Perigee altitude
474.543 km
Semi-major axis
6,853.633 km
Eccentricity
0.000139
Inclination
53.1596°
RAAN
143.8055°
Arg. of periapsis
76.3005°
True anomaly
283.79953°
Mean anomaly
283.815°
Eccentric anomaly
283.80727°
Mean motion
3.82527 °/min
BSTAR
0.000057609
Orbital period
94.11 mins
Loading maneuver chart data...
Loading SW <> Apogee altitude chart data...
Loading historical data...
Loading historical data...
Loading historical data...
Loading historical data...
Loading historical data...
Loading historical data...
Loading historical data...

STARLINK-32343 Visibility forecast

Observer location: undefined°, undefined°

Span
Click to sort rows by Start time (UTC) header in descending order
Start Az.
Max El. time (UTC)
Max El. Az.
Max El.
End time (UTC)
End Az.
4 mins2025-04-26 03:00:08.518Z160.697° S2025-04-26 03:02:08.518Z126.659° SE14.353°2025-04-26 03:04:08.518Z92.785° ESE
6 mins2025-04-26 04:37:08.518Z244.297° WSW2025-04-26 04:40:08.518Z4.178° NNE39.384°2025-04-26 04:43:08.518Z44.221° NE
5 mins2025-04-26 09:34:08.518Z339.975° N2025-04-26 09:36:08.518Z16.724° NNE18.735°2025-04-26 09:39:08.518Z72.387° E
6 mins2025-04-26 11:12:08.518Z305.426° NW2025-04-26 11:15:08.518Z163.857° S41.974°2025-04-26 11:18:08.518Z136.899° SSE
|